{"data":{"norad_id":66617,"intl_designator":"2025-271A","name":"STARLINK-35940","alt_names":[],"object_type":"PAYLOAD","status":"ACTIVE","operator":null,"country":"US","launch_date":"2025-11-23","launch_site_code":"AFWTR","launch_vehicle":null,"mission":null,"orbit_class":"UNKNOWN","rcs_meters":null,"size_class":null,"mass_kg":null,"dimensions":null,"purposes":["comms"],"wikipedia_slug":null,"has_3d_model":false,"image_url":null,"decayed_at":null,"tle_current":{"epoch":"2026-05-24T17:00:03.339072Z","epoch_age_seconds":96375,"freshness":"FRESH","line1":"1 66617U 25271A   26144.70837198  .00011397  00000+0  39632-3 0  9999","line2":"2 66617  53.1556 146.9696 0001072  91.2285 268.8838 15.30201658 29208","mean_motion":15.30201658,"eccentricity":0.0001072,"inclination_deg":53.1556,"raan_deg":146.9696,"arg_perigee_deg":91.2285,"mean_anomaly_deg":268.8838,"bstar":0.00039632,"rev_number":2920,"period_min":94.105243741672,"perigee_km":474.4754401235,"apogee_km":475.9447977458,"semimajor_km":6853.3471189347,"source":"CELESTRAK","updated_at":"2026-05-25T13:38:21.293797Z"}}}